| time (UTC) | temp F | wind direction | speed MPH | gust MPH | rain 1hr in | rain 24hr in | rain mn in | humidity % | barometer mb |
| 20260508012350 | 47 | 0 | 0.0 | 0.0 | 0.00 | 0.00 | 0.00 | 57 | 997.6 |
| 20260508012006 | 47 | 338 | 0.0 | 0.0 | 0.00 | 0.00 | 0.00 | 57 | 997.6 |
| 20260508011507 | 47 | 293 | 0.0 | 0.0 | 0.00 | 0.00 | 0.00 | 56 | 997.8 |
| 20260508010849 | 47 | 293 | 0.0 | 0.0 | 0.00 | 0.00 | 0.00 | 56 | 997.6 |
| 20260508010508 | 47 | 270 | 0.0 | 0.0 | 0.00 | 0.00 | 0.00 | 56 | 997.6 |
| 20260508005507 | 47 | 248 | 0.0 | 0.0 | 0.00 | 0.00 | 0.00 | 56 | 997.6 |
| 20260508005348 | 47 | 338 | 0.0 | 0.0 | 0.00 | 0.00 | 0.00 | 56 | 997.6 |
| 20260508005008 | 48 | 338 | 0.0 | 0.0 | 0.00 | 0.00 | 0.00 | 56 | 997.6 |
| 20260508004007 | 48 | 270 | 0.0 | 0.0 | 0.00 | 0.00 | 0.00 | 55 | 997.6 |
| 20260508003848 | 48 | 270 | 0.0 | 0.0 | 0.00 | 0.00 | 0.00 | 55 | 997.8 |
| 20260508003008 | 49 | 270 | 0.0 | 0.0 | 0.00 | 0.00 | 0.00 | 54 | 997.7 |
| 20260508002508 | 49 | 315 | 0.0 | 0.0 | 0.00 | 0.00 | 0.00 | 53 | 997.9 |
| 20260508002349 | 49 | 315 | 0.0 | 0.0 | 0.00 | 0.00 | 0.00 | 52 | 997.9 |
| 20260508002008 | 49 | 315 | 0.0 | 0.0 | 0.00 | 0.00 | 0.00 | 52 | 997.9 |
| 20260508001507 | 49 | 315 | 0.0 | 0.0 | 0.00 | 0.00 | 0.00 | 51 | 997.6 |
| 20260508000850 | 50 | 315 | 0.0 | 0.0 | 0.00 | 0.00 | 0.00 | 51 | 997.6 |
| 20260508000507 | 50 | 315 | 0.0 | 0.0 | 0.00 | 0.00 | 0.00 | 51 | 997.6 |
| 20260508000008 | 50 | 315 | 0.0 | 0.0 | 0.00 | 0.00 | 0.00 | 49 | 997.6 |
| 20260507235508 | 50 | 315 | 0.0 | 0.0 | 0.00 | 0.00 | 0.00 | 48 | 997.6 |
| 20260507235349 | 50 | 315 | 0.0 | 0.0 | 0.00 | 0.00 | 0.00 | 48 | 997.6 |
| 20260507235006 | 51 | 270 | 0.0 | 0.0 | 0.00 | 0.00 | 0.00 | 48 | 997.6 |
| 20260507233849 | 51 | 315 | 0.0 | 0.0 | 0.00 | 0.00 | 0.00 | 48 | 997.6 |
| 20260507233008 | 51 | 270 | 0.0 | 0.0 | 0.00 | 0.00 | 0.00 | 48 | 997.6 |
| 20260507232507 | 51 | 270 | 0.0 | 0.0 | 0.00 | 0.00 | 0.00 | 47 | 997.6 |
| 20260507232348 | 51 | 293 | 0.0 | 0.0 | 0.00 | 0.00 | 0.00 | 47 | 997.6 |
| 20260507232008 | 52 | 248 | 0.0 | 0.0 | 0.00 | 0.00 | 0.00 | 47 | 997.6 |
| 20260507231507 | 52 | 270 | 0.0 | 0.0 | 0.00 | 0.00 | 0.00 | 47 | 997.6 |
| 20260507231009 | 52 | 315 | 0.0 | 0.0 | 0.00 | 0.00 | 0.00 | 47 | 997.6 |
| 20260507230848 | 52 | 293 | 0.0 | 0.0 | 0.00 | 0.00 | 0.00 | 47 | 997.6 |
| 20260507230507 | 52 | 225 | 0.0 | 0.0 | 0.00 | 0.00 | 0.00 | 47 | 997.6 |
| 20260507225348 | 53 | 293 | 0.0 | 0.0 | 0.00 | 0.00 | 0.00 | 47 | 997.6 |
| 20260507224507 | 52 | 293 | 0.0 | 0.0 | 0.00 | 0.00 | 0.00 | 46 | 997.6 |
| 20260507224007 | 52 | 270 | 0.0 | 0.0 | 0.00 | 0.00 | 0.00 | 46 | 997.6 |
| 20260507223850 | 52 | 248 | 0.0 | 0.0 | 0.00 | 0.00 | 0.00 | 46 | 997.6 |
| 20260507223007 | 52 | 293 | 0.0 | 0.0 | 0.00 | 0.00 | 0.00 | 46 | 997.6 |
| 20260507222507 | 53 | 315 | 0.0 | 0.0 | 0.00 | 0.00 | 0.00 | 46 | 997.4 |
| 20260507222348 | 53 | 315 | 0.0 | 0.0 | 0.00 | 0.00 | 0.00 | 46 | 997.2 |
| 20260507222008 | 53 | 248 | 0.0 | 0.0 | 0.00 | 0.00 | 0.00 | 46 | 997.2 |
| 20260507221007 | 53 | 225 | 0.0 | 0.0 | 0.00 | 0.00 | 0.00 | 46 | 997.2 |
| 20260507220850 | 53 | 293 | 0.0 | 0.0 | 0.00 | 0.00 | 0.00 | 46 | 997.2 |
| 20260507220508 | 53 | 270 | 0.0 | 0.0 | 0.00 | 0.00 | 0.00 | 46 | 997.2 |
| 20260507220007 | 53 | 203 | 0.0 | 0.0 | 0.00 | 0.00 | 0.00 | 46 | 997.2 |
| 20260507215507 | 53 | 270 | 0.0 | 0.0 | 0.00 | 0.00 | 0.00 | 47 | 997.2 |
| 20260507215349 | 53 | 270 | 0.0 | 0.0 | 0.00 | 0.00 | 0.00 | 46 | 997.2 |
| 20260507215007 | 53 | 270 | 0.0 | 0.0 | 0.00 | 0.00 | 0.00 | 46 | 997.2 |
| 20260507214507 | 53 | 293 | 0.0 | 0.0 | 0.00 | 0.00 | 0.00 | 46 | 997.2 |
| 20260507213850 | 53 | 225 | 0.0 | 0.0 | 0.00 | 0.00 | 0.00 | 46 | 997.2 |
| 20260507213006 | 53 | 248 | 0.0 | 0.0 | 0.00 | 0.00 | 0.00 | 46 | 997.2 |
| 20260507212349 | 53 | 270 | 0.0 | 0.0 | 0.00 | 0.00 | 0.00 | 46 | 997.2 |
| 20260507212008 | 53 | 293 | 0.0 | 0.0 | 0.00 | 0.00 | 0.00 | 46 | 997.2 |
| 20260507210850 | 54 | 270 | 0.0 | 0.0 | 0.00 | 0.00 | 0.00 | 45 | 997.2 |
| 20260507210507 | 54 | 293 | 0.0 | 0.0 | 0.00 | 0.00 | 0.00 | 45 | 997.2 |
| 20260507205508 | 54 | 270 | 0.0 | 0.0 | 0.00 | 0.00 | 0.00 | 46 | 997.2 |
| 20260507205349 | 54 | 293 | 0.0 | 0.0 | 0.00 | 0.00 | 0.00 | 46 | 997.2 |
| 20260507205007 | 54 | 270 | 0.0 | 0.0 | 0.00 | 0.00 | 0.00 | 46 | 997.2 |
| 20260507204506 | 54 | 293 | 0.0 | 0.0 | 0.00 | 0.00 | 0.00 | 45 | 997.2 |
| 20260507204008 | 54 | 270 | 0.0 | 0.0 | 0.00 | 0.00 | 0.00 | 44 | 997.4 |
| 20260507203849 | 54 | 270 | 0.0 | 0.0 | 0.00 | 0.00 | 0.00 | 44 | 997.3 |
| 20260507203507 | 55 | 270 | 0.0 | 0.0 | 0.00 | 0.00 | 0.00 | 44 | 997.2 |
| 20260507202507 | 56 | 270 | 0.0 | 0.0 | 0.00 | 0.00 | 0.00 | 45 | 997.6 |
| 20260507202350 | 56 | 270 | 0.0 | 0.0 | 0.00 | 0.00 | 0.00 | 45 | 997.6 |
| 20260507202007 | 57 | 270 | 0.0 | 0.0 | 0.00 | 0.00 | 0.00 | 45 | 997.6 |
| 20260507200849 | 58 | 293 | 0.0 | 0.0 | 0.00 | 0.00 | 0.00 | 45 | 997.6 |
| 20260507200508 | 58 | 203 | 0.0 | 0.0 | 0.00 | 0.00 | 0.00 | 46 | 997.6 |
| 20260507200006 | 57 | 293 | 0.0 | 0.0 | 0.00 | 0.00 | 0.00 | 47 | 997.8 |
| 20260507195508 | 57 | 248 | 0.0 | 0.0 | 0.00 | 0.00 | 0.00 | 47 | 997.6 |
| 20260507195349 | 56 | 248 | 0.0 | 0.0 | 0.00 | 0.00 | 0.00 | 46 | 997.9 |
| 20260507194506 | 56 | 248 | 0.0 | 0.0 | 0.00 | 0.00 | 0.00 | 47 | 997.9 |
| 20260507194007 | 55 | 315 | 0.0 | 0.0 | 0.00 | 0.00 | 0.00 | 48 | 997.9 |
| 20260507193850 | 55 | 270 | 0.0 | 0.0 | 0.00 | 0.00 | 0.00 | 47 | 997.9 |
| 20260507193507 | 55 | 293 | 0.0 | 0.0 | 0.00 | 0.00 | 0.00 | 48 | 997.9 |
| 20260507192506 | 54 | 270 | 0.0 | 0.0 | 0.00 | 0.00 | 0.00 | 50 | 998.2 |
| 20260507192350 | 54 | 270 | 0.0 | 0.0 | 0.00 | 0.00 | 0.00 | 50 | 998.2 |
| 20260507191507 | 54 | 293 | 0.0 | 0.0 | 0.00 | 0.00 | 0.00 | 51 | 998.3 |
| 20260507191008 | 53 | 270 | 0.0 | 0.0 | 0.00 | 0.00 | 0.00 | 51 | 998.3 |
| 20260507190849 | 53 | 270 | 0.0 | 0.0 | 0.00 | 0.00 | 0.00 | 51 | 998.3 |
| 20260507190507 | 53 | 315 | 0.0 | 0.0 | 0.00 | 0.00 | 0.00 | 50 | 998.3 |
| 20260507190007 | 53 | 248 | 0.0 | 0.0 | 0.00 | 0.00 | 0.00 | 52 | 998.3 |
| 20260507185507 | 52 | 293 | 0.0 | 0.0 | 0.00 | 0.00 | 0.00 | 53 | 998.3 |
| 20260507185350 | 52 | 315 | 0.0 | 0.0 | 0.00 | 0.00 | 0.00 | 52 | 998.3 |
| 20260507184508 | 52 | 293 | 0.0 | 0.0 | 0.00 | 0.00 | 0.00 | 52 | 998.3 |
| 20260507184008 | 53 | 315 | 0.0 | 0.0 | 0.00 | 0.00 | 0.00 | 52 | 998.3 |
| 20260507183849 | 53 | 315 | 0.0 | 0.0 | 0.00 | 0.00 | 0.00 | 53 | 998.3 |
| 20260507183507 | 53 | 315 | 0.0 | 0.0 | 0.00 | 0.00 | 0.00 | 53 | 998.3 |
| 20260507183006 | 53 | 270 | 0.0 | 0.0 | 0.00 | 0.00 | 0.00 | 54 | 998.3 |
| 20260507182508 | 52 | 315 | 0.0 | 0.0 | 0.00 | 0.00 | 0.00 | 53 | 998.3 |
| 20260507182349 | 52 | 315 | 0.0 | 0.0 | 0.00 | 0.00 | 0.00 | 53 | 998.3 |
| 20260507181508 | 52 | 270 | 0.0 | 0.0 | 0.00 | 0.00 | 0.00 | 54 | 998.3 |
| 20260507181008 | 51 | 225 | 0.0 | 0.0 | 0.00 | 0.00 | 0.00 | 54 | 998.3 |
| 20260507180849 | 50 | 248 | 0.0 | 0.0 | 0.00 | 0.00 | 0.00 | 54 | 998.5 |
| 20260507180508 | 50 | 293 | 0.0 | 0.0 | 0.00 | 0.00 | 0.00 | 54 | 998.6 |
| 20260507180007 | 50 | 270 | 0.0 | 0.0 | 0.00 | 0.00 | 0.00 | 54 | 998.6 |
| 20260507175350 | 49 | 270 | 0.0 | 0.0 | 0.00 | 0.00 | 0.00 | 54 | 998.7 |
| 20260507175007 | 49 | 270 | 0.0 | 0.0 | 0.00 | 0.00 | 0.00 | 54 | 998.9 |
| 20260507174508 | 49 | 315 | 0.0 | 0.0 | 0.00 | 0.00 | 0.00 | 54 | 998.9 |
| 20260507174007 | 50 | 293 | 0.0 | 0.0 | 0.00 | 0.00 | 0.00 | 54 | 998.9 |
| 20260507173850 | 50 | 270 | 0.0 | 0.0 | 0.00 | 0.00 | 0.00 | 54 | 998.9 |
| 20260507173508 | 50 | 270 | 0.0 | 0.0 | 0.00 | 0.00 | 0.00 | 54 | 999.0 |
| 20260507173008 | 50 | 270 | 0.0 | 0.0 | 0.00 | 0.00 | 0.00 | 54 | 998.9 |
| 20260507172508 | 50 | 270 | 0.0 | 0.0 | 0.00 | 0.00 | 0.00 | 53 | 998.9 |
| 20260507172350 | 50 | 270 | 0.0 | 0.0 | 0.00 | 0.00 | 0.00 | 53 | 999.0 |
| 20260507172007 | 50 | 270 | 0.0 | 0.0 | 0.00 | 0.00 | 0.00 | 53 | 998.9 |
| 20260507171508 | 50 | 270 | 0.0 | 0.0 | 0.00 | 0.00 | 0.00 | 54 | 999.2 |
| 20260507171007 | 50 | 293 | 0.0 | 0.0 | 0.00 | 0.00 | 0.00 | 54 | 999.3 |
| 20260507170850 | 50 | 270 | 0.0 | 0.0 | 0.00 | 0.00 | 0.00 | 54 | 999.3 |
| 20260507170508 | 50 | 270 | 0.0 | 0.0 | 0.00 | 0.00 | 0.00 | 53 | 999.3 |
| 20260507170007 | 50 | 248 | 0.0 | 0.0 | 0.00 | 0.00 | 0.00 | 53 | 999.3 |
| 20260507165507 | 50 | 225 | 0.0 | 0.0 | 0.00 | 0.00 | 0.00 | 53 | 999.3 |
| 20260507165350 | 50 | 225 | 0.0 | 0.0 | 0.00 | 0.00 | 0.00 | 53 | 999.3 |
| 20260507165008 | 51 | 293 | 0.0 | 0.0 | 0.00 | 0.00 | 0.00 | 53 | 999.3 |
| 20260507163849 | 51 | 270 | 0.0 | 0.0 | 0.00 | 0.00 | 0.00 | 54 | 999.3 |
| 20260507163508 | 51 | 270 | 0.0 | 0.0 | 0.00 | 0.00 | 0.00 | 54 | 999.3 |
| 20260507162507 | 51 | 293 | 0.0 | 0.0 | 0.00 | 0.00 | 0.00 | 55 | 999.3 |
| 20260507162350 | 52 | 270 | 0.0 | 0.0 | 0.00 | 0.00 | 0.00 | 55 | 999.3 |
| 20260507162008 | 52 | 293 | 0.0 | 0.0 | 0.00 | 0.00 | 0.00 | 54 | 999.3 |
| 20260507161507 | 52 | 293 | 0.0 | 0.0 | 0.00 | 0.00 | 0.00 | 55 | 999.3 |
| 20260507161008 | 51 | 293 | 0.0 | 0.0 | 0.00 | 0.00 | 0.00 | 56 | 999.3 |
| 20260507160850 | 51 | 338 | 0.0 | 0.0 | 0.00 | 0.00 | 0.00 | 56 | 999.3 |
| 20260507155350 | 51 | 203 | 0.0 | 0.0 | 0.00 | 0.00 | 0.00 | 57 | 999.3 |
| 20260507155008 | 51 | 203 | 0.0 | 0.0 | 0.00 | 0.00 | 0.00 | 58 | 999.3 |
| 20260507154507 | 50 | 270 | 0.0 | 0.0 | 0.00 | 0.00 | 0.00 | 60 | 999.3 |
| 20260507153849 | 50 | 270 | 0.0 | 0.0 | 0.00 | 0.00 | 0.00 | 60 | 999.3 |
| 20260507153506 | 50 | 293 | 0.0 | 0.0 | 0.00 | 0.00 | 0.00 | 61 | 999.3 |
| 20260507153007 | 50 | 293 | 0.0 | 0.0 | 0.00 | 0.00 | 0.00 | 60 | 999.3 |
| 20260507152507 | 50 | 315 | 0.0 | 0.0 | 0.00 | 0.00 | 0.00 | 63 | 999.3 |
| 20260507152349 | 50 | 248 | 0.0 | 0.0 | 0.00 | 0.00 | 0.00 | 63 | 999.3 |
| 20260507152007 | 50 | 270 | 0.0 | 0.0 | 0.00 | 0.00 | 0.00 | 63 | 999.6 |
| 20260507151507 | 50 | 270 | 0.0 | 0.0 | 0.00 | 0.00 | 0.00 | 63 | 999.5 |
| 20260507151007 | 50 | 248 | 0.0 | 0.0 | 0.00 | 0.00 | 0.00 | 63 | 999.4 |
| 20260507150849 | 50 | 315 | 0.0 | 0.0 | 0.00 | 0.00 | 0.00 | 63 | 999.3 |
| 20260507150507 | 50 | 225 | 0.0 | 0.0 | 0.00 | 0.00 | 0.00 | 64 | 999.3 |
| 20260507150007 | 49 | 225 | 0.0 | 0.0 | 0.00 | 0.00 | 0.00 | 64 | 999.3 |
| 20260507145350 | 49 | 248 | 0.0 | 0.0 | 0.00 | 0.00 | 0.00 | 65 | 999.3 |
| 20260507145006 | 49 | 270 | 0.0 | 0.0 | 0.00 | 0.00 | 0.00 | 65 | 999.3 |
| 20260507144507 | 49 | 270 | 0.0 | 0.0 | 0.00 | 0.00 | 0.00 | 65 | 999.3 |
| 20260507144008 | 48 | 270 | 0.0 | 0.0 | 0.00 | 0.00 | 0.00 | 66 | 999.3 |
| 20260507143849 | 48 | 225 | 0.0 | 0.0 | 0.00 | 0.00 | 0.00 | 65 | 999.3 |
| 20260507143508 | 48 | 180 | 0.0 | 0.0 | 0.00 | 0.00 | 0.00 | 66 | 999.3 |
| 20260507142508 | 47 | 270 | 0.0 | 0.0 | 0.00 | 0.00 | 0.00 | 67 | 999.3 |
| 20260507142349 | 47 | 293 | 0.0 | 0.0 | 0.00 | 0.00 | 0.00 | 68 | 999.3 |
| 20260507141007 | 47 | 338 | 0.0 | 0.0 | 0.00 | 0.00 | 0.00 | 68 | 999.3 |
| 20260507140849 | 47 | 338 | 0.0 | 0.0 | 0.00 | 0.00 | 0.00 | 68 | 999.5 |
| 20260507140508 | 47 | 338 | 0.0 | 0.0 | 0.00 | 0.00 | 0.00 | 68 | 999.3 |
| 20260507135349 | 47 | 315 | 0.0 | 0.0 | 0.00 | 0.00 | 0.00 | 69 | 999.6 |
| 20260507135007 | 47 | 293 | 0.0 | 0.0 | 0.00 | 0.00 | 0.00 | 69 | 999.6 |
| 20260507134007 | 47 | 315 | 0.0 | 0.0 | 0.00 | 0.00 | 0.00 | 69 | 999.6 |
| 20260507133850 | 47 | 315 | 0.0 | 0.0 | 0.00 | 0.00 | 0.00 | 69 | 999.6 |
| 20260507133008 | 47 | 338 | 0.0 | 0.0 | 0.00 | 0.00 | 0.00 | 69 | 999.6 |
| 20260507132506 | 47 | 315 | 0.0 | 0.0 | 0.00 | 0.00 | 0.00 | 69 | 999.6 |
| 20260507132349 | 47 | 315 | 0.0 | 0.0 | 0.00 | 0.00 | 0.00 | 69 | 999.6 |
| 20260507132008 | 47 | 315 | 0.0 | 0.0 | 0.00 | 0.00 | 0.00 | 69 | 999.6 |
| 20260507130849 | 46 | 338 | 0.0 | 0.0 | 0.00 | 0.00 | 0.00 | 69 | 999.6 |
| 20260507130508 | 46 | 338 | 0.0 | 0.0 | 0.00 | 0.00 | 0.00 | 69 | 999.6 |
| 20260507130007 | 47 | 338 | 0.0 | 0.0 | 0.00 | 0.00 | 0.00 | 69 | 999.4 |
| 20260507125508 | 47 | 338 | 0.0 | 0.0 | 0.00 | 0.00 | 0.00 | 69 | 999.4 |
| 20260507125350 | 46 | 338 | 0.0 | 0.0 | 0.00 | 0.00 | 0.00 | 69 | 999.3 |
| 20260507124508 | 46 | 338 | 0.0 | 0.0 | 0.00 | 0.00 | 0.00 | 70 | 999.3 |
| 20260507123849 | 46 | 338 | 0.0 | 0.0 | 0.00 | 0.00 | 0.00 | 70 | 999.3 |
| 20260507123507 | 46 | 338 | 0.0 | 0.0 | 0.00 | 0.00 | 0.00 | 70 | 999.3 |
| 20260507123008 | 45 | 338 | 0.0 | 0.0 | 0.00 | 0.00 | 0.00 | 71 | 999.3 |
| 20260507122350 | 45 | 338 | 0.0 | 0.0 | 0.00 | 0.00 | 0.00 | 72 | 999.3 |
| 20260507122007 | 44 | 338 | 0.0 | 0.0 | 0.00 | 0.00 | 0.00 | 72 | 999.3 |
| 20260507121007 | 43 | 338 | 0.0 | 0.0 | 0.00 | 0.00 | 0.00 | 74 | 999.3 |
| 20260507120850 | 42 | 338 | 0.0 | 0.0 | 0.00 | 0.00 | 0.00 | 74 | 999.3 |
| 20260507120508 | 42 | 338 | 0.0 | 0.0 | 0.00 | 0.00 | 0.00 | 74 | 999.3 |
| 20260507120007 | 41 | 338 | 0.0 | 0.0 | 0.00 | 0.00 | 0.00 | 75 | 999.3 |
| 20260507115507 | 40 | 338 | 0.0 | 0.0 | 0.00 | 0.00 | 0.00 | 74 | 999.3 |
| 20260507115350 | 40 | 338 | 0.0 | 0.0 | 0.00 | 0.00 | 0.00 | 74 | 999.3 |
| 20260507114508 | 39 | 338 | 0.0 | 0.0 | 0.00 | 0.00 | 0.00 | 74 | 999.3 |
| 20260507114007 | 38 | 338 | 0.0 | 0.0 | 0.00 | 0.00 | 0.00 | 73 | 999.3 |
| 20260507113850 | 38 | 338 | 0.0 | 0.0 | 0.00 | 0.00 | 0.00 | 73 | 999.3 |
| 20260507113507 | 38 | 338 | 0.0 | 0.0 | 0.00 | 0.00 | 0.00 | 73 | 999.3 |
| 20260507113008 | 38 | 338 | 0.0 | 0.0 | 0.00 | 0.00 | 0.00 | 73 | 999.3 |
| 20260507112507 | 38 | 338 | 0.0 | 0.0 | 0.00 | 0.00 | 0.00 | 74 | 999.3 |
| 20260507112350 | 38 | 338 | 0.0 | 0.0 | 0.00 | 0.00 | 0.00 | 74 | 999.3 |
| 20260507112009 | 38 | 338 | 0.0 | 0.0 | 0.00 | 0.00 | 0.00 | 74 | 999.1 |
| 20260507110850 | 38 | 338 | 0.0 | 0.0 | 0.00 | 0.00 | 0.00 | 74 | 999.0 |
| 20260507110508 | 38 | 338 | 0.0 | 0.0 | 0.00 | 0.00 | 0.00 | 74 | 998.9 |
| 20260507110007 | 38 | 338 | 0.0 | 0.0 | 0.00 | 0.00 | 0.00 | 74 | 998.9 |
| 20260507105507 | 38 | 338 | 0.0 | 0.0 | 0.00 | 0.00 | 0.00 | 74 | 998.9 |
| 20260507105350 | 38 | 338 | 0.0 | 0.0 | 0.00 | 0.00 | 0.00 | 74 | 998.9 |
| 20260507105007 | 38 | 338 | 0.0 | 0.0 | 0.00 | 0.00 | 0.00 | 74 | 998.9 |
| 20260507104007 | 38 | 338 | 0.0 | 0.0 | 0.00 | 0.00 | 0.00 | 73 | 998.9 |
| 20260507103850 | 38 | 338 | 0.0 | 0.0 | 0.00 | 0.00 | 0.00 | 73 | 998.9 |
| 20260507103507 | 38 | 338 | 0.0 | 0.0 | 0.00 | 0.00 | 0.00 | 73 | 998.9 |
| 20260507103007 | 38 | 338 | 0.0 | 0.0 | 0.00 | 0.00 | 0.00 | 73 | 998.9 |
| 20260507102350 | 38 | 338 | 0.0 | 0.0 | 0.00 | 0.00 | 0.00 | 73 | 998.8 |
| 20260507101508 | 38 | 338 | 0.0 | 0.0 | 0.00 | 0.00 | 0.00 | 73 | 998.9 |
| 20260507100850 | 38 | 338 | 0.0 | 0.0 | 0.00 | 0.00 | 0.00 | 73 | 998.9 |
| 20260507100507 | 38 | 338 | 0.0 | 0.0 | 0.00 | 0.00 | 0.00 | 73 | 998.9 |
| 20260507100008 | 38 | 338 | 0.0 | 0.0 | 0.00 | 0.00 | 0.00 | 73 | 998.9 |
| 20260507095349 | 38 | 338 | 0.0 | 0.0 | 0.00 | 0.00 | 0.00 | 73 | 998.9 |
| 20260507095008 | 38 | 338 | 0.0 | 0.0 | 0.00 | 0.00 | 0.00 | 73 | 998.9 |
| 20260507094507 | 38 | 338 | 0.0 | 0.0 | 0.00 | 0.00 | 0.00 | 73 | 998.9 |
| 20260507094007 | 39 | 338 | 0.0 | 0.0 | 0.00 | 0.00 | 0.00 | 73 | 998.9 |
| 20260507093850 | 39 | 338 | 0.0 | 0.0 | 0.00 | 0.00 | 0.00 | 73 | 998.9 |
| 20260507093508 | 39 | 338 | 0.0 | 0.0 | 0.00 | 0.00 | 0.00 | 73 | 998.9 |
| 20260507092507 | 39 | 338 | 0.0 | 0.0 | 0.00 | 0.00 | 0.00 | 73 | 998.9 |
| 20260507092350 | 39 | 338 | 0.0 | 0.0 | 0.00 | 0.00 | 0.00 | 73 | 998.9 |
| 20260507091508 | 39 | 315 | 0.0 | 0.0 | 0.00 | 0.00 | 0.00 | 73 | 998.9 |
| 20260507091008 | 39 | 315 | 0.0 | 0.0 | 0.00 | 0.00 | 0.00 | 73 | 998.9 |
| 20260507090849 | 39 | 315 | 0.0 | 0.0 | 0.00 | 0.00 | 0.00 | 73 | 998.9 |
| 20260507090508 | 39 | 315 | 0.0 | 0.0 | 0.00 | 0.00 | 0.00 | 73 | 998.9 |
| 20260507090008 | 39 | 338 | 0.0 | 0.0 | 0.00 | 0.00 | 0.00 | 72 | 998.9 |
| 20260507085508 | 39 | 338 | 0.0 | 0.0 | 0.00 | 0.00 | 0.00 | 72 | 998.9 |
| 20260507085351 | 39 | 315 | 0.0 | 0.0 | 0.00 | 0.00 | 0.00 | 72 | 998.9 |
| 20260507085008 | 39 | 293 | 0.0 | 0.0 | 0.00 | 0.00 | 0.00 | 72 | 998.9 |
| 20260507084507 | 40 | 338 | 0.0 | 0.0 | 0.00 | 0.00 | 0.00 | 72 | 998.9 |
| 20260507084007 | 40 | 315 | 0.0 | 0.0 | 0.00 | 0.00 | 0.00 | 72 | 999.2 |
| 20260507083850 | 40 | 315 | 0.0 | 0.0 | 0.00 | 0.00 | 0.00 | 72 | 998.9 |
| 20260507083508 | 40 | 315 | 0.0 | 0.0 | 0.00 | 0.00 | 0.00 | 72 | 998.9 |
| 20260507083007 | 40 | 315 | 0.0 | 0.0 | 0.00 | 0.00 | 0.00 | 72 | 999.0 |
| 20260507082507 | 40 | 315 | 0.0 | 0.0 | 0.00 | 0.00 | 0.00 | 72 | 998.9 |
| 20260507082350 | 40 | 315 | 0.0 | 0.0 | 0.00 | 0.00 | 0.00 | 72 | 999.0 |
| 20260507082008 | 40 | 315 | 0.0 | 0.0 | 0.00 | 0.00 | 0.00 | 73 | 999.3 |
| 20260507081508 | 40 | 315 | 0.0 | 0.0 | 0.00 | 0.00 | 0.00 | 72 | 998.9 |
| 20260507081012 | 40 | 315 | 0.0 | 0.0 | 0.00 | 0.00 | 0.00 | 72 | 998.9 |
| 20260507080850 | 40 | 315 | 0.0 | 0.0 | 0.00 | 0.00 | 0.00 | 72 | 998.9 |
| 20260507080508 | 40 | 315 | 0.0 | 0.0 | 0.00 | 0.00 | 0.00 | 72 | 998.9 |
| 20260507080007 | 40 | 315 | 0.0 | 0.0 | 0.00 | 0.00 | 0.00 | 72 | 998.9 |
| 20260507075351 | 40 | 315 | 0.0 | 0.0 | 0.00 | 0.00 | 0.00 | 72 | 998.9 |
| 20260507075007 | 40 | 315 | 0.0 | 0.0 | 0.00 | 0.00 | 0.00 | 72 | 998.9 |
| 20260507074507 | 40 | 315 | 0.0 | 0.0 | 0.00 | 0.00 | 0.00 | 72 | 999.1 |
| 20260507074007 | 40 | 315 | 0.0 | 0.0 | 0.00 | 0.00 | 0.00 | 72 | 999.2 |
| 20260507073850 | 40 | 315 | 0.0 | 0.0 | 0.00 | 0.00 | 0.00 | 72 | 998.9 |
| 20260507073508 | 40 | 315 | 0.0 | 0.0 | 0.00 | 0.00 | 0.00 | 71 | 999.0 |
| 20260507073007 | 40 | 315 | 0.0 | 0.0 | 0.00 | 0.00 | 0.00 | 71 | 998.9 |
| 20260507072350 | 40 | 338 | 0.0 | 0.0 | 0.00 | 0.00 | 0.00 | 71 | 999.0 |
| 20260507072008 | 40 | 338 | 0.0 | 0.0 | 0.00 | 0.00 | 0.00 | 71 | 998.9 |
| 20260507071008 | 40 | 315 | 0.0 | 0.0 | 0.00 | 0.00 | 0.00 | 70 | 998.9 |
| 20260507070849 | 40 | 315 | 0.0 | 0.0 | 0.00 | 0.00 | 0.00 | 70 | 998.9 |
| 20260507070507 | 41 | 315 | 0.0 | 0.0 | 0.00 | 0.00 | 0.00 | 70 | 998.9 |
| 20260507070010 | 41 | 315 | 0.0 | 0.0 | 0.00 | 0.00 | 0.00 | 70 | 998.9 |
| 20260507065349 | 41 | 315 | 0.0 | 0.0 | 0.00 | 0.00 | 0.00 | 69 | 999.2 |
| 20260507064507 | 41 | 315 | 0.0 | 0.0 | 0.00 | 0.00 | 0.00 | 69 | 999.3 |
| 20260507063850 | 41 | 315 | 0.0 | 0.0 | 0.00 | 0.00 | 0.00 | 69 | 999.3 |
| 20260507062507 | 41 | 315 | 0.0 | 0.0 | 0.00 | 0.00 | 0.00 | 69 | 999.3 |
| 20260507062350 | 41 | 315 | 0.0 | 0.0 | 0.00 | 0.00 | 0.00 | 69 | 999.3 |
| 20260507061507 | 41 | 315 | 0.0 | 0.0 | 0.00 | 0.00 | 0.00 | 68 | 999.3 |
| 20260507061007 | 42 | 315 | 0.0 | 0.0 | 0.00 | 0.00 | 0.00 | 67 | 999.3 |
| 20260507060850 | 42 | 315 | 0.0 | 0.0 | 0.00 | 0.00 | 0.00 | 67 | 999.3 |
| 20260507060507 | 42 | 315 | 0.0 | 0.0 | 0.00 | 0.00 | 0.00 | 67 | 999.3 |
| 20260507055508 | 42 | 315 | 0.0 | 0.0 | 0.00 | 0.00 | 0.00 | 67 | 999.3 |
| 20260507055349 | 42 | 315 | 0.0 | 0.0 | 0.00 | 0.00 | 0.00 | 67 | 999.3 |
| 20260507055008 | 42 | 315 | 0.0 | 0.0 | 0.00 | 0.00 | 0.00 | 67 | 999.3 |
| 20260507054508 | 43 | 315 | 0.0 | 0.0 | 0.00 | 0.00 | 0.00 | 66 | 999.3 |
| 20260507054008 | 43 | 315 | 0.0 | 0.0 | 0.00 | 0.00 | 0.00 | 66 | 999.3 |
| 20260507053849 | 43 | 315 | 0.0 | 0.0 | 0.00 | 0.00 | 0.00 | 66 | 999.3 |
| 20260507053509 | 43 | 315 | 0.0 | 0.0 | 0.00 | 0.00 | 0.00 | 66 | 999.3 |
| 20260507053008 | 43 | 315 | 0.0 | 0.0 | 0.00 | 0.00 | 0.00 | 66 | 999.3 |
| 20260507052349 | 44 | 293 | 0.0 | 0.0 | 0.00 | 0.00 | 0.00 | 66 | 999.3 |
| 20260507052009 | 44 | 293 | 0.0 | 0.0 | 0.00 | 0.00 | 0.00 | 65 | 999.3 |
| 20260507051508 | 44 | 293 | 0.0 | 0.0 | 0.00 | 0.00 | 0.00 | 65 | 999.3 |
| 20260507051008 | 45 | 338 | 0.0 | 0.0 | 0.00 | 0.00 | 0.00 | 65 | 999.3 |
| 20260507050849 | 45 | 293 | 0.0 | 0.0 | 0.00 | 0.00 | 0.00 | 64 | 999.3 |
| 20260507050508 | 45 | 338 | 0.0 | 0.0 | 0.00 | 0.00 | 0.00 | 64 | 999.3 |
| 20260507045349 | 45 | 315 | 0.0 | 0.0 | 0.00 | 0.00 | 0.00 | 61 | 999.3 |
| 20260507045008 | 46 | 315 | 0.0 | 0.0 | 0.00 | 0.00 | 0.00 | 61 | 999.3 |
| 20260507044508 | 46 | 338 | 0.0 | 0.0 | 0.00 | 0.00 | 0.00 | 59 | 999.3 |
| 20260507044008 | 46 | 338 | 0.0 | 0.0 | 0.00 | 0.00 | 0.00 | 58 | 999.3 |
| 20260507043849 | 46 | 23 | 0.0 | 0.0 | 0.00 | 0.00 | 0.00 | 58 | 999.3 |
| 20260507043508 | 46 | 23 | 0.0 | 0.0 | 0.00 | 0.00 | 0.00 | 59 | 999.3 |
| 20260507043008 | 46 | 23 | 0.0 | 0.0 | 0.00 | 0.00 | 0.00 | 57 | 999.3 |
| 20260507042507 | 46 | 23 | 0.0 | 0.0 | 0.00 | 0.00 | 0.00 | 57 | 999.3 |
| 20260507042350 | 46 | 23 | 0.0 | 0.0 | 0.00 | 0.00 | 0.00 | 57 | 999.3 |
| 20260507042007 | 47 | 23 | 0.0 | 0.0 | 0.00 | 0.00 | 0.00 | 57 | 999.3 |
| 20260507041510 | 47 | 23 | 0.0 | 0.0 | 0.00 | 0.00 | 0.00 | 57 | 999.3 |
| 20260507040849 | 47 | 23 | 0.0 | 0.0 | 0.00 | 0.00 | 0.00 | 57 | 999.3 |
| 20260507040508 | 47 | 23 | 0.0 | 0.0 | 0.00 | 0.00 | 0.00 | 57 | 999.3 |
| 20260507040007 | 47 | 23 | 0.0 | 0.0 | 0.00 | 0.00 | 0.00 | 57 | 999.3 |
| 20260507035508 | 47 | 23 | 0.0 | 0.0 | 0.00 | 0.00 | 0.00 | 56 | 999.3 |
| 20260507035349 | 47 | 23 | 0.0 | 0.0 | 0.00 | 0.00 | 0.00 | 56 | 999.3 |
| 20260507035008 | 47 | 23 | 0.0 | 0.0 | 0.00 | 0.00 | 0.00 | 56 | 999.3 |
| 20260507034008 | 47 | 23 | 0.0 | 0.0 | 0.00 | 0.00 | 0.00 | 56 | 999.3 |
| 20260507033849 | 48 | 23 | 0.0 | 0.0 | 0.00 | 0.00 | 0.00 | 55 | 999.3 |
| 20260507033507 | 48 | 23 | 0.0 | 0.0 | 0.00 | 0.00 | 0.00 | 55 | 999.3 |
| 20260507032507 | 48 | 23 | 0.0 | 0.0 | 0.00 | 0.00 | 0.00 | 54 | 999.3 |
| 20260507032350 | 48 | 23 | 0.0 | 0.0 | 0.00 | 0.00 | 0.00 | 54 | 999.3 |
| 20260507032009 | 48 | 23 | 0.0 | 0.0 | 0.00 | 0.00 | 0.00 | 54 | 999.3 |
| 20260507031508 | 49 | 23 | 0.0 | 0.0 | 0.00 | 0.00 | 0.00 | 53 | 999.3 |
| 20260507031008 | 49 | 23 | 0.0 | 0.0 | 0.00 | 0.00 | 0.00 | 52 | 999.3 |
| 20260507030849 | 49 | 0 | 0.0 | 0.0 | 0.00 | 0.00 | 0.00 | 52 | 999.3 |
| 20260507030007 | 49 | 23 | 0.0 | 0.0 | 0.00 | 0.00 | 0.00 | 51 | 999.3 |
| 20260507025509 | 49 | 45 | 0.0 | 0.0 | 0.00 | 0.00 | 0.00 | 50 | 999.3 |
| 20260507025350 | 49 | 270 | 0.0 | 0.0 | 0.00 | 0.00 | 0.00 | 50 | 999.3 |
| 20260507025008 | 49 | 293 | 0.0 | 0.0 | 0.00 | 0.00 | 0.00 | 50 | 999.6 |
| 20260507024508 | 50 | 0 | 0.0 | 0.0 | 0.00 | 0.00 | 0.00 | 50 | 999.3 |
| 20260507023850 | 50 | 338 | 0.0 | 0.0 | 0.00 | 0.00 | 0.00 | 50 | 999.4 |
| 20260507023507 | 50 | 270 | 0.0 | 0.0 | 0.00 | 0.00 | 0.00 | 50 | 999.3 |
| 20260507023008 | 50 | 315 | 0.0 | 0.0 | 0.00 | 0.00 | 0.00 | 50 | 999.6 |
| 20260507022509 | 50 | 315 | 0.0 | 0.0 | 0.00 | 0.00 | 0.00 | 50 | 999.3 |
| 20260507022350 | 50 | 338 | 0.0 | 0.0 | 0.00 | 0.00 | 0.00 | 50 | 999.3 |
| 20260507022008 | 50 | 338 | 0.0 | 0.0 | 0.00 | 0.00 | 0.00 | 50 | 999.3 |
| 20260507021508 | 50 | 338 | 0.0 | 0.0 | 0.00 | 0.00 | 0.00 | 49 | 999.3 |
| 20260507021008 | 50 | 315 | 0.0 | 0.0 | 0.00 | 0.00 | 0.00 | 49 | 999.3 |
| 20260507020849 | 50 | 293 | 0.0 | 0.0 | 0.00 | 0.00 | 0.00 | 49 | 999.1 |
| 20260507020009 | 50 | 293 | 0.0 | 0.0 | 0.00 | 0.00 | 0.00 | 48 | 998.9 |
| 20260507015508 | 51 | 315 | 0.0 | 0.0 | 0.00 | 0.00 | 0.00 | 48 | 998.9 |
| 20260507015349 | 51 | 293 | 0.0 | 0.0 | 0.00 | 0.00 | 0.00 | 48 | 998.9 |
| 20260507014507 | 51 | 315 | 0.0 | 0.0 | 0.00 | 0.00 | 0.00 | 47 | 998.9 |
| 20260507014008 | 51 | 293 | 0.0 | 0.0 | 0.00 | 0.00 | 0.00 | 47 | 998.9 |
| 20260507013851 | 51 | 293 | 0.0 | 0.0 | 0.00 | 0.00 | 0.00 | 47 | 998.8 |